| time (UTC) | temp F | wind direction | speed MPH | gust MPH | rain 1hr in | rain 24hr in | rain mn in | humidity % | barometer mb |
| 20260507213013 | 64 | 3 | 1.0 | 8.0 | 0.00 | 0.33 | 0.28 | 35 | 1003.8 |
| 20260507212511 | 65 | 22 | 3.0 | 8.0 | 0.00 | 0.33 | 0.28 | 34 | 1003.8 |
| 20260507212012 | 65 | 359 | 2.0 | 8.0 | 0.00 | 0.33 | 0.28 | 34 | 1003.8 |
| 20260507211511 | 65 | 339 | 3.0 | 8.0 | 0.00 | 0.33 | 0.28 | 33 | 1003.7 |
| 20260507211010 | 65 | 346 | 2.0 | 6.0 | 0.00 | 0.33 | 0.28 | 33 | 1003.6 |
| 20260507210510 | 65 | 9 | 2.0 | 8.0 | 0.00 | 0.33 | 0.28 | 31 | 1003.6 |
| 20260507210010 | 65 | 351 | 2.0 | 8.0 | 0.00 | 0.34 | 0.28 | 32 | 1003.6 |
| 20260507205509 | 66 | 353 | 0.0 | 6.0 | 0.00 | 0.34 | 0.28 | 33 | 1003.6 |
| 20260507205012 | 66 | 8 | 1.0 | 6.0 | 0.00 | 0.34 | 0.28 | 31 | 1003.6 |
| 20260507204507 | 66 | 3 | 2.0 | 9.0 | 0.00 | 0.34 | 0.28 | 30 | 1003.6 |
| 20260507204010 | 67 | 346 | 3.0 | 10.0 | 0.00 | 0.34 | 0.28 | 31 | 1003.6 |
| 20260507203507 | 67 | 3 | 3.0 | 10.0 | 0.00 | 0.34 | 0.28 | 31 | 1003.6 |
| 20260507203009 | 67 | 8 | 2.0 | 9.0 | 0.00 | 0.34 | 0.28 | 30 | 1003.6 |
| 20260507202506 | 68 | 211 | 2.0 | 9.0 | 0.00 | 0.34 | 0.28 | 32 | 1003.6 |
| 20260507202006 | 68 | 5 | 3.0 | 8.0 | 0.00 | 0.34 | 0.28 | 32 | 1003.5 |
| 20260507201506 | 67 | 355 | 3.0 | 7.0 | 0.00 | 0.34 | 0.28 | 31 | 1003.5 |
| 20260507201005 | 67 | 312 | 3.0 | 11.0 | 0.00 | 0.34 | 0.28 | 31 | 1003.6 |
| 20260507200505 | 68 | 337 | 4.0 | 11.0 | 0.00 | 0.34 | 0.28 | 30 | 1003.7 |
| 20260507200004 | 68 | 8 | 4.0 | 11.0 | 0.00 | 0.36 | 0.28 | 30 | 1003.5 |
| 20260507195502 | 68 | 5 | 4.0 | 11.0 | 0.00 | 0.36 | 0.28 | 30 | 1003.7 |
| 20260507195003 | 68 | 8 | 1.0 | 11.0 | 0.00 | 0.36 | 0.28 | 29 | 1003.7 |
| 20260507194600 | 69 | 30 | 2.0 | 10.0 | 0.00 | 0.36 | 0.28 | 29 | 1003.6 |
| 20260507194058 | 69 | 194 | 3.0 | 6.0 | 0.00 | 0.36 | 0.28 | 32 | 1003.7 |
| 20260507193557 | 69 | 323 | 0.0 | 7.0 | 0.00 | 0.36 | 0.28 | 33 | 1003.7 |
| 20260507193058 | 69 | 360 | 1.0 | 8.0 | 0.00 | 0.36 | 0.28 | 30 | 1003.9 |
| 20260507192554 | 68 | 358 | 1.0 | 8.0 | 0.00 | 0.36 | 0.28 | 33 | 1004.0 |
| 20260507192056 | 68 | 5 | 1.0 | 10.0 | 0.00 | 0.36 | 0.28 | 30 | 1004.1 |
| 20260507191556 | 68 | 360 | 2.0 | 10.0 | 0.00 | 0.36 | 0.28 | 32 | 1004.1 |
| 20260507191050 | 67 | 36 | 1.0 | 8.0 | 0.00 | 0.36 | 0.28 | 30 | 1004.2 |
| 20260507190550 | 68 | 10 | 3.0 | 8.0 | 0.00 | 0.36 | 0.28 | 30 | 1004.3 |
| 20260507190054 | 68 | 3 | 1.0 | 4.0 | 0.00 | 0.36 | 0.28 | 33 | 1004.2 |
| 20260507185548 | 68 | 2 | 1.0 | 7.0 | 0.00 | 0.36 | 0.28 | 36 | 1004.3 |
| 20260507185048 | 67 | 180 | 1.0 | 7.0 | 0.00 | 0.36 | 0.28 | 33 | 1004.3 |
| 20260507184551 | 67 | 215 | 2.0 | 7.0 | 0.00 | 0.36 | 0.28 | 35 | 1004.4 |
| 20260507184048 | 68 | 11 | 3.0 | 8.0 | 0.00 | 0.36 | 0.28 | 32 | 1004.5 |
| 20260507183548 | 68 | 11 | 1.0 | 8.0 | 0.00 | 0.36 | 0.28 | 36 | 1004.6 |
| 20260507183047 | 68 | 3 | 0.0 | 7.0 | 0.00 | 0.36 | 0.28 | 35 | 1004.5 |
| 20260507182546 | 67 | 4 | 1.0 | 10.0 | 0.00 | 0.36 | 0.28 | 34 | 1004.7 |
| 20260507182044 | 67 | 25 | 5.0 | 10.0 | 0.00 | 0.36 | 0.28 | 32 | 1004.7 |
| 20260507181547 | 67 | 5 | 1.0 | 7.0 | 0.00 | 0.36 | 0.28 | 34 | 1004.9 |
| 20260507181044 | 66 | 338 | 1.0 | 6.0 | 0.00 | 0.36 | 0.28 | 35 | 1004.8 |
| 20260507180544 | 66 | 2 | 2.0 | 7.0 | 0.00 | 0.36 | 0.28 | 35 | 1005.0 |
| 20260507180044 | 66 | 360 | 2.0 | 7.0 | 0.00 | 0.36 | 0.28 | 36 | 1005.1 |
| 20260507175542 | 67 | 14 | 1.0 | 8.0 | 0.00 | 0.36 | 0.28 | 40 | 1005.0 |
| 20260507175042 | 66 | 208 | 2.0 | 8.0 | 0.00 | 0.36 | 0.28 | 42 | 1005.0 |
| 20260507174546 | 66 | 9 | 2.0 | 6.0 | 0.00 | 0.36 | 0.28 | 44 | 1005.1 |
| 20260507174040 | 65 | 13 | 1.0 | 6.0 | 0.00 | 0.36 | 0.28 | 40 | 1005.0 |
| 20260507173542 | 65 | 22 | 2.0 | 6.0 | 0.00 | 0.36 | 0.28 | 38 | 1005.1 |
| 20260507173040 | 65 | 360 | 1.0 | 7.0 | 0.00 | 0.36 | 0.28 | 38 | 1005.1 |
| 20260507172539 | 65 | 347 | 3.0 | 7.0 | 0.00 | 0.36 | 0.28 | 38 | 1005.1 |
| 20260507172037 | 65 | 164 | 0.0 | 9.0 | 0.00 | 0.36 | 0.28 | 45 | 1005.1 |
| 20260507171538 | 64 | 246 | 1.0 | 9.0 | 0.00 | 0.36 | 0.28 | 41 | 1005.3 |
| 20260507171037 | 64 | 346 | 2.0 | 8.0 | 0.00 | 0.36 | 0.28 | 41 | 1005.3 |
| 20260507170538 | 64 | 341 | 1.0 | 8.0 | 0.00 | 0.36 | 0.28 | 41 | 1005.3 |
| 20260507170043 | 64 | 19 | 2.0 | 8.0 | 0.00 | 0.36 | 0.28 | 39 | 1005.5 |
| 20260507165534 | 65 | 8 | 0.0 | 6.0 | 0.00 | 0.36 | 0.28 | 42 | 1005.5 |
| 20260507165034 | 64 | 199 | 2.0 | 10.0 | 0.00 | 0.36 | 0.28 | 42 | 1005.6 |
| 20260507164534 | 64 | 5 | 1.0 | 10.0 | 0.00 | 0.36 | 0.28 | 46 | 1005.8 |
| 20260507164031 | 63 | 327 | 2.0 | 8.0 | 0.00 | 0.36 | 0.28 | 44 | 1005.7 |
| 20260507163531 | 63 | 338 | 1.0 | 8.0 | 0.00 | 0.36 | 0.28 | 45 | 1005.8 |
| 20260507163030 | 63 | 3 | 2.0 | 8.0 | 0.00 | 0.36 | 0.28 | 46 | 1005.8 |
| 20260507162529 | 63 | 197 | 0.0 | 6.0 | 0.00 | 0.36 | 0.28 | 47 | 1005.8 |
| 20260507162028 | 62 | 293 | 1.0 | 6.0 | 0.00 | 0.36 | 0.28 | 47 | 1005.9 |
| 20260507161528 | 62 | 13 | 0.0 | 6.0 | 0.00 | 0.36 | 0.28 | 47 | 1005.8 |
| 20260507161028 | 62 | 358 | 2.0 | 9.0 | 0.00 | 0.36 | 0.28 | 50 | 1006.0 |
| 20260507160529 | 62 | 191 | 2.0 | 9.0 | 0.00 | 0.36 | 0.28 | 52 | 1006.0 |
| 20260507160026 | 62 | 325 | 2.0 | 7.0 | 0.00 | 0.36 | 0.28 | 51 | 1006.0 |
| 20260507155506 | 61 | 343 | 1.0 | 8.0 | 0.00 | 0.36 | 0.28 | 52 | 1006.1 |
| 20260507155004 | 61 | 354 | 2.0 | 8.0 | 0.00 | 0.36 | 0.28 | 50 | 1006.2 |
| 20260507154504 | 61 | 353 | 2.0 | 5.0 | 0.00 | 0.36 | 0.28 | 57 | 1006.1 |
| 20260507154002 | 61 | 15 | 1.0 | 7.0 | 0.00 | 0.36 | 0.28 | 59 | 1006.2 |
| 20260507153502 | 61 | 7 | 3.0 | 7.0 | 0.00 | 0.36 | 0.28 | 61 | 1006.3 |
| 20260507153006 | 61 | 353 | 2.0 | 7.0 | 0.00 | 0.36 | 0.28 | 60 | 1006.1 |
| 20260507152504 | 60 | 23 | 0.0 | 6.0 | 0.00 | 0.36 | 0.28 | 60 | 1006.2 |
| 20260507152003 | 60 | 3 | 2.0 | 7.0 | 0.00 | 0.36 | 0.28 | 61 | 1006.3 |
| 20260507151600 | 60 | 360 | 3.0 | 7.0 | 0.00 | 0.36 | 0.28 | 61 | 1006.3 |
| 20260507151059 | 60 | 86 | 3.0 | 9.0 | 0.00 | 0.36 | 0.28 | 63 | 1006.4 |
| 20260507150558 | 60 | 21 | 3.0 | 9.0 | 0.00 | 0.36 | 0.28 | 63 | 1006.4 |
| 20260507150056 | 59 | 3 | 2.0 | 7.0 | 0.00 | 0.36 | 0.28 | 63 | 1006.4 |
| 20260507145556 | 59 | 22 | 2.0 | 7.0 | 0.00 | 0.36 | 0.28 | 67 | 1006.5 |
| 20260507145054 | 58 | 209 | 1.0 | 7.0 | 0.00 | 0.36 | 0.28 | 67 | 1006.5 |
| 20260507144552 | 58 | 351 | 0.0 | 8.0 | 0.00 | 0.36 | 0.28 | 70 | 1006.5 |
| 20260507144055 | 58 | 360 | 2.0 | 8.0 | 0.00 | 0.36 | 0.28 | 69 | 1006.5 |
| 20260507143552 | 58 | 7 | 2.0 | 7.0 | 0.00 | 0.36 | 0.28 | 72 | 1006.4 |
| 20260507143053 | 57 | 344 | 1.0 | 7.0 | 0.00 | 0.36 | 0.28 | 72 | 1006.4 |
| 20260507142552 | 57 | 343 | 0.0 | 7.0 | 0.00 | 0.36 | 0.28 | 74 | 1006.5 |
| 20260507142050 | 56 | 9 | 1.0 | 6.0 | 0.00 | 0.36 | 0.28 | 76 | 1006.7 |
| 20260507141551 | 56 | 214 | 0.0 | 5.0 | 0.00 | 0.36 | 0.28 | 77 | 1006.7 |
| 20260507141049 | 56 | 345 | 0.0 | 5.0 | 0.00 | 0.36 | 0.28 | 78 | 1006.6 |
| 20260507140551 | 56 | 10 | 1.0 | 8.0 | 0.00 | 0.36 | 0.28 | 76 | 1006.6 |
| 20260507140051 | 55 | 4 | 2.0 | 8.0 | 0.00 | 0.36 | 0.28 | 76 | 1006.8 |
| 20260507135549 | 55 | 360 | 0.0 | 5.0 | 0.00 | 0.36 | 0.28 | 80 | 1006.9 |
| 20260507135046 | 55 | 241 | 1.0 | 5.0 | 0.00 | 0.36 | 0.28 | 82 | 1006.8 |
| 20260507134550 | 55 | 339 | 0.0 | 5.0 | 0.00 | 0.36 | 0.28 | 84 | 1006.9 |
| 20260507134045 | 54 | 360 | 1.0 | 5.0 | 0.00 | 0.36 | 0.28 | 82 | 1006.8 |
| 20260507133545 | 54 | 26 | 1.0 | 4.0 | 0.00 | 0.36 | 0.28 | 84 | 1006.9 |
| 20260507133045 | 53 | 4 | 0.0 | 3.0 | 0.00 | 0.36 | 0.28 | 86 | 1006.9 |
| 20260507132544 | 53 | 351 | 0.0 | 3.0 | 0.00 | 0.36 | 0.28 | 85 | 1006.8 |
| 20260507132048 | 53 | 357 | 0.0 | 3.0 | 0.00 | 0.36 | 0.28 | 86 | 1006.8 |
| 20260507131644 | 53 | 334 | 1.0 | 3.0 | 0.00 | 0.36 | 0.28 | 85 | 1006.9 |
| 20260507131044 | 53 | 147 | 0.0 | 2.0 | 0.00 | 0.36 | 0.28 | 87 | 1007.0 |
| 20260507130544 | 53 | 4 | 0.0 | 2.0 | 0.00 | 0.36 | 0.28 | 88 | 1007.1 |
| 20260507130055 | 53 | 197 | 0.0 | 3.0 | 0.00 | 0.36 | 0.28 | 89 | 1007.1 |
| 20260507125542 | 53 | 358 | 0.0 | 3.0 | 0.00 | 0.36 | 0.28 | 89 | 1006.6 |
| 20260507125041 | 53 | 6 | 1.0 | 3.0 | 0.00 | 0.36 | 0.28 | 88 | 1006.6 |
| 20260507124548 | 53 | 11 | 0.0 | 1.0 | 0.00 | 0.36 | 0.28 | 89 | 1006.8 |
| 20260507124041 | 52 | 360 | 0.0 | 3.0 | 0.00 | 0.36 | 0.28 | 90 | 1006.8 |
| 20260507123541 | 52 | 360 | 0.0 | 3.0 | 0.00 | 0.36 | 0.28 | 91 | 1006.7 |
| 20260507123042 | 52 | 9 | 0.0 | 0.0 | 0.00 | 0.36 | 0.28 | 91 | 1006.7 |
| 20260507122542 | 52 | 9 | 0.0 | 2.0 | 0.00 | 0.36 | 0.28 | 92 | 1006.8 |
| 20260507122041 | 52 | 10 | 0.0 | 2.0 | 0.00 | 0.36 | 0.28 | 91 | 1006.9 |
| 20260507121541 | 52 | 8 | 0.0 | 0.0 | 0.01 | 0.36 | 0.28 | 92 | 1006.8 |
| 20260507121041 | 51 | 8 | 0.0 | 0.0 | 0.01 | 0.36 | 0.28 | 92 | 1006.9 |
| 20260507120541 | 51 | 8 | 0.0 | 0.0 | 0.02 | 0.36 | 0.28 | 92 | 1007.0 |
| 20260507120043 | 51 | 8 | 0.0 | 0.0 | 0.02 | 0.36 | 0.28 | 92 | 1007.0 |
| 20260507115539 | 51 | 8 | 0.0 | 0.0 | 0.03 | 0.36 | 0.28 | 92 | 1007.1 |
| 20260507115040 | 51 | 4 | 0.0 | 1.0 | 0.03 | 0.36 | 0.28 | 92 | 1007.1 |
| 20260507114541 | 51 | 4 | 0.0 | 1.0 | 0.03 | 0.36 | 0.28 | 92 | 1006.8 |
| 20260507114038 | 51 | 4 | 0.0 | 1.0 | 0.03 | 0.36 | 0.28 | 92 | 1006.6 |
| 20260507113538 | 51 | 4 | 0.0 | 0.0 | 0.03 | 0.36 | 0.28 | 92 | 1006.8 |
| 20260507113038 | 51 | 143 | 0.0 | 0.0 | 0.03 | 0.36 | 0.28 | 92 | 1006.5 |
| 20260507112540 | 51 | 152 | 0.0 | 1.0 | 0.03 | 0.36 | 0.28 | 92 | 1006.5 |
| 20260507112037 | 51 | 152 | 0.0 | 1.0 | 0.03 | 0.36 | 0.28 | 92 | 1006.4 |
| 20260507111537 | 51 | 152 | 0.0 | 2.0 | 0.03 | 0.35 | 0.27 | 92 | 1006.6 |
| 20260507111039 | 51 | 162 | 0.0 | 2.0 | 0.03 | 0.35 | 0.27 | 92 | 1006.6 |
| 20260507110539 | 51 | 169 | 0.0 | 1.0 | 0.02 | 0.34 | 0.26 | 92 | 1006.7 |
| 20260507110040 | 51 | 175 | 0.0 | 3.0 | 0.02 | 0.34 | 0.26 | 91 | 1006.9 |
| 20260507105535 | 51 | 340 | 0.0 | 3.0 | 0.01 | 0.33 | 0.25 | 91 | 1006.8 |
| 20260507105039 | 51 | 5 | 0.0 | 3.0 | 0.02 | 0.33 | 0.25 | 91 | 1006.4 |
| 20260507104534 | 51 | 355 | 0.0 | 3.0 | 0.03 | 0.33 | 0.25 | 91 | 1006.7 |
| 20260507104034 | 51 | 5 | 1.0 | 3.0 | 0.03 | 0.33 | 0.25 | 91 | 1006.5 |
| 20260507103535 | 51 | 9 | 1.0 | 6.0 | 0.03 | 0.33 | 0.25 | 91 | 1006.1 |
| 20260507103034 | 51 | 8 | 0.0 | 7.0 | 0.03 | 0.33 | 0.25 | 92 | 1006.2 |
| 20260507102532 | 51 | 5 | 3.0 | 7.0 | 0.04 | 0.33 | 0.25 | 92 | 1006.1 |
| 20260507102032 | 51 | 2 | 1.0 | 5.0 | 0.04 | 0.33 | 0.25 | 93 | 1005.8 |
| 20260507101532 | 51 | 5 | 0.0 | 5.0 | 0.03 | 0.32 | 0.24 | 93 | 1005.7 |
| 20260507101034 | 51 | 5 | 0.0 | 0.0 | 0.03 | 0.32 | 0.24 | 93 | 1005.7 |
| 20260507100531 | 51 | 12 | 0.0 | 0.0 | 0.03 | 0.32 | 0.24 | 93 | 1006.0 |
| 20260507100037 | 51 | 12 | 0.0 | 0.0 | 0.03 | 0.32 | 0.24 | 93 | 1006.1 |
| 20260507095530 | 51 | 357 | 0.0 | 0.0 | 0.03 | 0.32 | 0.24 | 93 | 1006.0 |
| 20260507095030 | 51 | 357 | 0.0 | 0.0 | 0.03 | 0.31 | 0.23 | 93 | 1006.0 |
| 20260507094529 | 51 | 356 | 0.0 | 0.0 | 0.02 | 0.30 | 0.22 | 93 | 1006.2 |
| 20260507094027 | 51 | 353 | 0.0 | 0.0 | 0.03 | 0.30 | 0.22 | 93 | 1006.1 |
| 20260507093527 | 51 | 353 | 0.0 | 0.0 | 0.03 | 0.30 | 0.22 | 93 | 1005.9 |
| 20260507093027 | 51 | 350 | 0.0 | 1.0 | 0.02 | 0.28 | 0.21 | 92 | 1005.8 |
| 20260507092526 | 51 | 342 | 0.0 | 1.0 | 0.02 | 0.28 | 0.21 | 92 | 1005.8 |
| 20260507092028 | 51 | 17 | 0.0 | 3.0 | 0.03 | 0.28 | 0.21 | 92 | 1005.9 |
| 20260507091525 | 51 | 9 | 0.0 | 3.0 | 0.03 | 0.28 | 0.21 | 92 | 1005.9 |
| 20260507091025 | 51 | 358 | 0.0 | 3.0 | 0.03 | 0.28 | 0.21 | 92 | 1005.7 |
| 20260507090524 | 51 | 26 | 0.0 | 3.0 | 0.04 | 0.28 | 0.21 | 92 | 1005.4 |
| 20260507090024 | 52 | 356 | 1.0 | 3.0 | 0.04 | 0.28 | 0.21 | 91 | 1005.3 |
| 20260507085523 | 52 | 359 | 1.0 | 3.0 | 0.04 | 0.28 | 0.21 | 91 | 1005.3 |
| 20260507085023 | 52 | 3 | 0.0 | 3.0 | 0.04 | 0.28 | 0.20 | 91 | 1005.8 |
| 20260507084522 | 52 | 5 | 0.0 | 3.0 | 0.06 | 0.28 | 0.20 | 92 | 1006.0 |
| 20260507084021 | 52 | 19 | 0.0 | 3.0 | 0.08 | 0.27 | 0.19 | 91 | 1005.7 |
| 20260507083521 | 52 | 357 | 0.0 | 3.0 | 0.13 | 0.27 | 0.19 | 91 | 1005.5 |
| 20260507083020 | 52 | 1 | 0.0 | 4.0 | 0.16 | 0.27 | 0.19 | 91 | 1005.4 |
| 20260507082519 | 52 | 17 | 0.0 | 5.0 | 0.17 | 0.27 | 0.19 | 91 | 1005.5 |
| 20260507082018 | 53 | 5 | 0.0 | 9.0 | 0.18 | 0.26 | 0.18 | 90 | 1005.4 |
| 20260507081534 | 53 | 337 | 4.0 | 9.0 | 0.18 | 0.26 | 0.18 | 90 | 1005.1 |
| 20260507081016 | 53 | 1 | 2.0 | 8.0 | 0.18 | 0.26 | 0.18 | 90 | 1005.3 |
| 20260507080518 | 54 | 346 | 3.0 | 8.0 | 0.17 | 0.25 | 0.17 | 91 | 1005.4 |
| 20260507080013 | 54 | 353 | 1.0 | 6.0 | 0.17 | 0.25 | 0.17 | 91 | 1005.3 |
| 20260507075516 | 55 | 358 | 1.0 | 5.0 | 0.16 | 0.24 | 0.16 | 91 | 1005.4 |
| 20260507075011 | 55 | 358 | 2.0 | 4.0 | 0.15 | 0.23 | 0.15 | 91 | 1005.3 |
| 20260507074522 | 55 | 11 | 0.0 | 6.0 | 0.13 | 0.21 | 0.13 | 91 | 1005.5 |
| 20260507074008 | 56 | 360 | 0.0 | 6.0 | 0.10 | 0.18 | 0.10 | 91 | 1005.4 |
| 20260507073507 | 56 | 14 | 1.0 | 6.0 | 0.05 | 0.13 | 0.05 | 90 | 1005.8 |
| 20260507073006 | 57 | 3 | 0.0 | 3.0 | 0.03 | 0.11 | 0.03 | 89 | 1005.4 |
| 20260507072508 | 57 | 12 | 0.0 | 2.0 | 0.01 | 0.09 | 0.01 | 87 | 1004.8 |
| 20260507072007 | 58 | 360 | 0.0 | 6.0 | 0.00 | 0.08 | 0.00 | 87 | 1004.8 |
| 20260507071507 | 58 | 16 | 0.0 | 6.0 | 0.00 | 0.08 | 0.00 | 87 | 1004.4 |
| 20260507071005 | 58 | 353 | 0.0 | 3.0 | 0.00 | 0.08 | 0.00 | 87 | 1004.1 |
| 20260507070504 | 58 | 8 | 0.0 | 2.0 | 0.00 | 0.08 | 0.00 | 87 | 1004.0 |
| 20260507070009 | 58 | 5 | 0.0 | 0.0 | 0.00 | 0.08 | 0.00 | 87 | 1004.0 |
| 20260507065505 | 58 | 5 | 0.0 | 0.0 | 0.00 | 0.08 | 0.00 | 87 | 1004.0 |
| 20260507065004 | 58 | 5 | 0.0 | 1.0 | 0.00 | 0.08 | 0.00 | 87 | 1003.9 |
| 20260507064501 | 58 | 360 | 0.0 | 4.0 | 0.00 | 0.08 | 0.00 | 87 | 1004.2 |
| 20260507064001 | 58 | 360 | 0.0 | 4.0 | 0.00 | 0.08 | 0.00 | 88 | 1004.3 |
| 20260507063501 | 58 | 19 | 0.0 | 1.0 | 0.00 | 0.08 | 0.00 | 88 | 1004.5 |
| 20260507063100 | 58 | 19 | 0.0 | 3.0 | 0.00 | 0.08 | 0.00 | 89 | 1004.5 |
| 20260507062559 | 58 | 355 | 0.0 | 4.0 | 0.00 | 0.08 | 0.00 | 90 | 1004.4 |
| 20260507062058 | 58 | 162 | 1.0 | 4.0 | 0.00 | 0.08 | 0.00 | 92 | 1004.6 |
| 20260507061606 | 58 | 192 | 0.0 | 0.0 | 0.00 | 0.08 | 0.00 | 93 | 1004.5 |
| 20260507061058 | 58 | 196 | 0.0 | 0.0 | 0.00 | 0.08 | 0.00 | 93 | 1004.3 |
| 20260507060558 | 58 | 195 | 0.0 | 0.0 | 0.00 | 0.08 | 0.00 | 93 | 1004.3 |
| 20260507060057 | 58 | 196 | 0.0 | 0.0 | 0.00 | 0.08 | 0.00 | 93 | 1004.4 |
| 20260507055555 | 58 | 196 | 0.0 | 0.0 | 0.00 | 0.08 | 0.00 | 93 | 1004.5 |
| 20260507055054 | 58 | 196 | 0.0 | 0.0 | 0.00 | 0.08 | 0.00 | 93 | 1004.7 |
| 20260507054636 | 58 | 196 | 0.0 | 0.0 | 0.00 | 0.08 | 0.00 | 93 | 1004.8 |
| 20260507054054 | 58 | 196 | 0.0 | 0.0 | 0.00 | 0.08 | 0.00 | 93 | 1004.9 |
| 20260507053554 | 58 | 196 | 0.0 | 0.0 | 0.00 | 0.08 | 0.00 | 93 | 1004.7 |
| 20260507053054 | 58 | 196 | 0.0 | 0.0 | 0.00 | 0.08 | 0.00 | 93 | 1004.8 |
| 20260507052552 | 58 | 196 | 0.0 | 0.0 | 0.00 | 0.08 | 0.00 | 93 | 1005.0 |
| 20260507052052 | 58 | 196 | 0.0 | 0.0 | 0.00 | 0.08 | 0.00 | 93 | 1005.1 |
| 20260507051552 | 58 | 196 | 0.0 | 0.0 | 0.00 | 0.08 | 0.00 | 93 | 1005.1 |
| 20260507051051 | 57 | 196 | 0.0 | 0.0 | 0.00 | 0.08 | 0.00 | 93 | 1005.2 |
| 20260507050551 | 57 | 196 | 0.0 | 0.0 | 0.00 | 0.08 | 0.00 | 93 | 1005.3 |
| 20260507050056 | 57 | 196 | 0.0 | 0.0 | 0.00 | 0.08 | 0.00 | 93 | 1005.3 |
| 20260507045551 | 57 | 196 | 0.0 | 0.0 | 0.00 | 0.08 | 0.00 | 93 | 1005.2 |
| 20260507045051 | 57 | 196 | 0.0 | 0.0 | 0.00 | 0.08 | 0.00 | 93 | 1005.3 |
| 20260507044554 | 57 | 196 | 0.0 | 0.0 | 0.00 | 0.08 | 0.00 | 93 | 1005.1 |
| 20260507044050 | 57 | 195 | 0.0 | 0.0 | 0.00 | 0.08 | 0.00 | 93 | 1005.2 |
| 20260507043550 | 57 | 196 | 0.0 | 0.0 | 0.00 | 0.08 | 0.00 | 93 | 1005.3 |
| 20260507043050 | 57 | 195 | 0.0 | 0.0 | 0.00 | 0.08 | 0.00 | 93 | 1005.3 |
| 20260507042549 | 57 | 195 | 0.0 | 0.0 | 0.00 | 0.08 | 0.00 | 93 | 1005.4 |
| 20260507042049 | 57 | 195 | 0.0 | 0.0 | 0.00 | 0.08 | 0.00 | 93 | 1005.3 |
| 20260507041559 | 57 | 211 | 0.0 | 0.0 | 0.00 | 0.08 | 0.00 | 93 | 1005.1 |
| 20260507041048 | 57 | 198 | 0.0 | 0.0 | 0.00 | 0.08 | 0.00 | 93 | 1005.1 |
| 20260507040547 | 57 | 197 | 0.0 | 0.0 | 0.00 | 0.08 | 0.00 | 93 | 1005.2 |
| 20260507040047 | 57 | 199 | 0.0 | 0.0 | 0.00 | 0.08 | 0.00 | 93 | 1005.0 |
| 20260507035546 | 57 | 197 | 0.0 | 0.0 | 0.00 | 0.08 | 0.08 | 93 | 1005.3 |
| 20260507035046 | 57 | 201 | 0.0 | 0.0 | 0.00 | 0.08 | 0.08 | 93 | 1005.4 |
| 20260507034555 | 58 | 198 | 0.0 | 0.0 | 0.00 | 0.08 | 0.08 | 93 | 1005.2 |
| 20260507034045 | 58 | 199 | 0.0 | 0.0 | 0.00 | 0.08 | 0.08 | 93 | 1005.1 |
| 20260507033544 | 57 | 199 | 0.0 | 0.0 | 0.00 | 0.08 | 0.08 | 93 | 1005.2 |
| 20260507033046 | 57 | 200 | 0.0 | 0.0 | 0.00 | 0.08 | 0.08 | 93 | 1005.5 |
| 20260507032544 | 57 | 200 | 0.0 | 0.0 | 0.00 | 0.08 | 0.08 | 93 | 1005.3 |
| 20260507032043 | 57 | 200 | 0.0 | 0.0 | 0.00 | 0.08 | 0.08 | 93 | 1005.5 |
| 20260507031600 | 57 | 199 | 0.0 | 0.0 | 0.00 | 0.08 | 0.08 | 93 | 1005.6 |
| 20260507031043 | 57 | 199 | 0.0 | 0.0 | 0.00 | 0.08 | 0.08 | 93 | 1005.7 |
| 20260507030544 | 57 | 203 | 0.0 | 0.0 | 0.00 | 0.08 | 0.08 | 93 | 1005.4 |
| 20260507030051 | 57 | 203 | 0.0 | 0.0 | 0.00 | 0.08 | 0.08 | 93 | 1005.3 |
| 20260507025542 | 57 | 203 | 0.0 | 0.0 | 0.00 | 0.08 | 0.08 | 93 | 1005.4 |
| 20260507025042 | 57 | 205 | 0.0 | 1.0 | 0.00 | 0.08 | 0.08 | 93 | 1005.3 |
| 20260507024545 | 57 | 199 | 0.0 | 1.0 | 0.00 | 0.08 | 0.08 | 93 | 1005.3 |
| 20260507024043 | 57 | 195 | 0.0 | 3.0 | 0.00 | 0.08 | 0.08 | 93 | 1005.4 |
| 20260507023542 | 57 | 201 | 0.0 | 3.0 | 0.00 | 0.08 | 0.08 | 93 | 1005.4 |
| 20260507023041 | 57 | 199 | 0.0 | 3.0 | 0.00 | 0.08 | 0.08 | 93 | 1005.3 |
| 20260507022542 | 57 | 187 | 0.0 | 4.0 | 0.00 | 0.08 | 0.08 | 93 | 1005.5 |
| 20260507022042 | 57 | 228 | 0.0 | 4.0 | 0.00 | 0.08 | 0.08 | 92 | 1005.6 |
| 20260507021541 | 57 | 200 | 0.0 | 4.0 | 0.00 | 0.08 | 0.08 | 92 | 1005.5 |
| 20260507021041 | 57 | 199 | 1.0 | 3.0 | 0.00 | 0.08 | 0.08 | 92 | 1005.6 |
| 20260507020542 | 57 | 207 | 0.0 | 3.0 | 0.00 | 0.08 | 0.08 | 92 | 1005.4 |
| 20260507020040 | 57 | 191 | 0.0 | 4.0 | 0.00 | 0.08 | 0.08 | 92 | 1005.4 |
| 20260507015539 | 57 | 190 | 0.0 | 4.0 | 0.00 | 0.08 | 0.08 | 92 | 1005.5 |
| 20260507015038 | 57 | 228 | 0.0 | 3.0 | 0.00 | 0.08 | 0.08 | 92 | 1005.6 |
| 20260507014547 | 57 | 191 | 0.0 | 4.0 | 0.00 | 0.08 | 0.08 | 92 | 1005.6 |
| 20260507014038 | 57 | 204 | 0.0 | 4.0 | 0.00 | 0.08 | 0.08 | 92 | 1005.6 |
| 20260507013537 | 57 | 195 | 0.0 | 3.0 | 0.00 | 0.08 | 0.08 | 92 | 1005.7 |
| 20260507013037 | 57 | 201 | 0.0 | 2.0 | 0.00 | 0.08 | 0.08 | 92 | 1005.7 |
| 20260507012538 | 57 | 209 | 0.0 | 2.0 | 0.00 | 0.08 | 0.08 | 92 | 1005.7 |
| 20260507012038 | 57 | 193 | 0.0 | 2.0 | 0.00 | 0.08 | 0.08 | 92 | 1005.8 |
| 20260507011538 | 57 | 190 | 0.0 | 2.0 | 0.00 | 0.08 | 0.08 | 92 | 1005.9 |
| 20260507011037 | 57 | 195 | 0.0 | 2.0 | 0.00 | 0.08 | 0.08 | 92 | 1005.9 |
| 20260507010537 | 57 | 211 | 0.0 | 2.0 | 0.00 | 0.08 | 0.08 | 92 | 1006.0 |
| 20260507010508 | 57 | 192 | 0.0 | 1.0 | 0.00 | 0.08 | 0.08 | 92 | 1006.1 |
| 20260507010041 | 57 | 206 | 0.0 | 2.0 | 0.00 | 0.08 | 0.08 | 92 | 1006.1 |
| 20260507005536 | 57 | 192 | 0.0 | 2.0 | 0.00 | 0.08 | 0.08 | 92 | 1006.1 |
| 20260507005035 | 57 | 200 | 0.0 | 2.0 | 0.00 | 0.08 | 0.08 | 92 | 1006.1 |
| 20260507004535 | 57 | 195 | 0.0 | 4.0 | 0.00 | 0.08 | 0.08 | 92 | 1006.0 |
| 20260507004035 | 57 | 199 | 0.0 | 4.0 | 0.00 | 0.08 | 0.08 | 92 | 1006.1 |
| 20260507003538 | 57 | 207 | 0.0 | 4.0 | 0.00 | 0.08 | 0.08 | 92 | 1006.0 |
| 20260507003038 | 57 | 198 | 0.0 | 3.0 | 0.00 | 0.08 | 0.08 | 92 | 1005.9 |
| 20260507002535 | 57 | 185 | 0.0 | 4.0 | 0.00 | 0.08 | 0.08 | 92 | 1005.8 |
| 20260507002035 | 57 | 192 | 1.0 | 4.0 | 0.00 | 0.08 | 0.08 | 92 | 1005.8 |
| 20260507001537 | 57 | 216 | 1.0 | 3.0 | 0.00 | 0.08 | 0.08 | 92 | 1005.8 |
| 20260507001034 | 57 | 216 | 0.0 | 4.0 | 0.00 | 0.08 | 0.08 | 92 | 1005.7 |
| 20260507000536 | 57 | 194 | 1.0 | 6.0 | 0.00 | 0.08 | 0.08 | 92 | 1005.8 |
| 20260507000038 | 57 | 189 | 1.0 | 6.0 | 0.00 | 0.08 | 0.08 | 92 | 1005.7 |
| 20260506235533 | 57 | 201 | 2.0 | 9.0 | 0.00 | 0.08 | 0.08 | 92 | 1005.8 |
| 20260506235033 | 57 | 156 | 2.0 | 9.0 | 0.00 | 0.08 | 0.08 | 93 | 1005.8 |
| 20260506234533 | 57 | 195 | 1.0 | 5.0 | 0.00 | 0.08 | 0.08 | 93 | 1005.8 |
| 20260506234034 | 57 | 172 | 1.0 | 4.0 | 0.00 | 0.08 | 0.08 | 93 | 1005.8 |
| 20260506233532 | 57 | 212 | 0.0 | 5.0 | 0.00 | 0.08 | 0.08 | 93 | 1005.7 |
| 20260506233034 | 57 | 196 | 0.0 | 7.0 | 0.00 | 0.08 | 0.08 | 93 | 1005.8 |
| 20260506232531 | 57 | 196 | 2.0 | 7.0 | 0.01 | 0.08 | 0.08 | 92 | 1005.7 |
| 20260506232031 | 57 | 185 | 1.0 | 7.0 | 0.01 | 0.08 | 0.08 | 92 | 1005.7 |
| 20260506231531 | 57 | 195 | 1.0 | 6.0 | 0.01 | 0.08 | 0.08 | 93 | 1005.8 |
| 20260506231031 | 57 | 196 | 1.0 | 6.0 | 0.01 | 0.08 | 0.08 | 92 | 1005.8 |
| 20260506230531 | 57 | 196 | 1.0 | 5.0 | 0.02 | 0.08 | 0.08 | 92 | 1005.7 |
| 20260506230031 | 57 | 178 | 1.0 | 8.0 | 0.03 | 0.08 | 0.08 | 92 | 1005.7 |
| 20260506225531 | 57 | 190 | 0.0 | 8.0 | 0.04 | 0.08 | 0.08 | 92 | 1005.8 |
| 20260506225029 | 57 | 178 | 2.0 | 8.0 | 0.04 | 0.08 | 0.08 | 92 | 1005.7 |
| 20260506224529 | 57 | 202 | 1.0 | 7.0 | 0.04 | 0.08 | 0.08 | 92 | 1005.7 |
| 20260506224030 | 57 | 190 | 2.0 | 8.0 | 0.04 | 0.08 | 0.08 | 92 | 1005.6 |
| 20260506223528 | 57 | 199 | 1.0 | 8.0 | 0.04 | 0.08 | 0.08 | 92 | 1005.6 |
| 20260506223027 | 57 | 171 | 0.0 | 6.0 | 0.04 | 0.08 | 0.08 | 92 | 1005.6 |
| 20260506222527 | 57 | 188 | 1.0 | 5.0 | 0.03 | 0.07 | 0.07 | 92 | 1005.7 |
| 20260506222026 | 57 | 167 | 1.0 | 5.0 | 0.03 | 0.07 | 0.07 | 91 | 1005.7 |
| 20260506221525 | 57 | 199 | 1.0 | 5.0 | 0.04 | 0.07 | 0.07 | 91 | 1005.6 |
| 20260506221028 | 57 | 169 | 1.0 | 8.0 | 0.03 | 0.06 | 0.06 | 91 | 1005.7 |
| 20260506220523 | 57 | 193 | 0.0 | 8.0 | 0.03 | 0.06 | 0.06 | 91 | 1005.8 |
| 20260506220024 | 57 | 185 | 3.0 | 8.0 | 0.02 | 0.05 | 0.05 | 91 | 1005.8 |
| 20260506215525 | 58 | 211 | 0.0 | 7.0 | 0.01 | 0.04 | 0.04 | 91 | 1005.9 |
| 20260506215023 | 58 | 193 | 1.0 | 9.0 | 0.01 | 0.04 | 0.04 | 91 | 1006.0 |
| 20260506214520 | 58 | 197 | 2.0 | 9.0 | 0.01 | 0.04 | 0.04 | 90 | 1006.3 |
| 20260506214019 | 58 | 151 | 2.0 | 8.0 | 0.02 | 0.04 | 0.04 | 90 | 1006.1 |
| 20260506213518 | 58 | 162 | 1.0 | 5.0 | 0.02 | 0.04 | 0.04 | 90 | 1006.2 |